Hourly Data Report for June 06, 2012

HALIFAX STANFIELD INT'L A
NOVA SCOTIA

44°52'48.060" N
63°30'00.050" W
145.40 m
8202250
71395
YHZ

Download Data

Hourly Data (June 2012)
Hourly Data Report for June 6, 2012
TIME
LST
Temp Definition
°C
Dew Point Definition
°C
Rel Hum Definition
%
Precip. Amount Definition
mm

Wind Dir Definition
10's deg

Wind Spd Definition
km/h
Visibility Definition
km
Stn Press Definition
kPa
Hmdx Definition


Wind Chill Definition


Weather Definition


00:00 7.9 6.9 93   35 20 9.7 99.04     Fog
01:00 7.8 6.9 94   35 20 9.7 99.01     Fog
02:00 7.6 7.0 96   34 22 8.0 99.02     Fog
03:00 7.7 7.0 95   34 19 12.9 99.01     Cloudy
04:00 7.8 7.0 95   34 15 16.1 99.03     Cloudy
05:00 7.9 7.1 95   33 17 12.9 99.05     Cloudy
06:00 8.2 7.3 94   32 19 16.1 99.09     Cloudy
07:00 8.5 7.2 92   33 22 16.1 99.10     Cloudy
08:00 9.0 7.3 89   32 24 19.3 99.16     Cloudy
09:00 9.5 7.7 89   33 24 19.3 99.17     Cloudy
10:00 10.4 8.0 85   35 20 24.1 99.17     Cloudy
11:00 11.7 8.6 81   32 32 24.1 99.15     Cloudy
12:00 10.4 7.7 83   33 24 24.1 99.18     Rain Showers
13:00 10.6 7.6 82   35 24 24.1 99.19     Rain Showers
14:00 10.4 9.0 91   34 26 9.7 99.21     Rain Showers, Fog
15:00 9.9 8.3 90   34 22 16.1 99.23     Rain Showers
16:00 9.3 7.8 90   34 26 16.1 99.24     Rain Showers
17:00 8.7 7.9 95   35 13 4.8 99.30     Rain Showers, Fog
18:00 8.5 7.8 95   34 19 6.4 99.33     Rain Showers, Fog
19:00 8.2 7.6 96   33 22 9.7 99.37     Rain Showers, Fog
20:00 7.9 7.3 96   34 19 9.7 99.40     Rain Showers, Fog
21:00 7.5 7.0 97   34 19 4.8 99.42     Rain Showers, Fog
22:00 7.3 6.7 96   34 19 16.1 99.46     Rain Showers
23:00 7.2 6.7 97   34 19 9.7 99.44     Fog

Notes on Data Quality.

Legend

  • E = Estimated
  • M = Missing
  • NA = Not Available*
  • [empty] = Indicates an unobserved value
Date modified: